Regional Weather Roundup
Issued by NWS Newport/Morehead, NC

Current Version | Previous Version | Graphics & Text | Print | Product List | Glossary On
Versions: 1 2 3 4 5 6 7 8 9 10 11 12 13 14 15 16 17 18 19 20 21 22 23 24 25 26 27 28 29 30 31 32 33 34 35 36 37 38 39 40 41 42 43 44 45 46 47 48 49 50
000 ASUS42 KMHX 281725 RWRMHX WEATHER ROUNDUP FOR EASTERN NORTH CAROLINA NATIONAL WEATHER SERVICE NEWPORT/MOREHEAD CITY NC 100 PM EDT THU APR 28 2016 NOTE: "FAIR" INDICATES FEW OR NO CLOUDS BELOW 12,000 FEET WITH NO SIGNIFICANT WEATHER AND/OR OBSTRUCTIONS TO VISIBILITY NCZ015>017-031-032-045>047-102-103-281800- NORTH COAST CITY SKY/WX TMP DP RH WIND PRES REMARKS EDENTON CLOUDY 72 68 88 NE9 29.93S ELIZABETH CITY CLOUDY 64 60 87 NE9 29.95F KITTY HAWK PTSUNNY 67 60 75 NE6 29.94R MANTEO NOT AVBL $$ NCZ045>047-081-094-103-104-281800- CENTRAL COAST CITY SKY/WX TMP DP RH WIND PRES REMARKS FRISCO MOSUNNY 75 68 78 SW9 29.94F SWANQUARTER NOT AVBL $$ NCZ095-097-098-100-101-281800- SOUTHERN COAST CITY SKY/WX TMP DP RH WIND PRES REMARKS BEAUFORT CLOUDY 74 67 78 SW13 29.94F CEDAR ISLAND NOT AVBL JACKSONVILLE CLOUDY 80 66 62 SW10 29.93S PINEY ISLAND NOT AVBL WILMINGTON CLOUDY 79 65 62 SW9 29.93F $$ NCZ011>013-027>030-043-044-078>080-089-090>093-098-281800- COASTAL PLAIN CITY SKY/WX TMP DP RH WIND PRES REMARKS AHOSKIE CLOUDY 64 62 92 NE7 29.93F CLINTON SUNNY 81 66 61 SW9 29.92F ELIZABETHTOWN CLOUDY 80 63 55 W8 29.93F GOLDSBORO MOSUNNY 81 70 69 SW12G18 29.90F GREENVILLE MOSUNNY 81 68 65 SW5 29.93F HAVELOCK CLOUDY 79 67 66 SW14G21 29.93F KENANSVILLE CLOUDY 81 65 58 CALM 29.93F KINSTON CLOUDY 81 66 61 SW10 29.92F NEW BERN MOSUNNY 83 66 56 W13 29.92F RICHLANDS CLOUDY 80 68 66 SW12 29.94S ROCKY MOUNT MOSUNNY 79 66 64 S7 29.91F WASHINGTON PTSUNNY 79 68 68 S6 29.91F WHITEVILLE CLOUDY 79 65 62 S7 29.93F $$ AMZ130-135-150-152-154-156-158-170-250-252-270-ANZ085-086-088-633-658-670-281800- MARINE OBSERVATIONS STATION/POSITION TIME TEMP WIND PRES WAVE SWELL AIR SEA DIR/SP/G HT/PER HT/PER (UTC) (F) (DEG/KT/KT) (MB) (FT/S) (FT/S) CHESAPEAKE LIGHT 1700 53 70/ 11/ 11 1015.6 64 E VA BEACH 1650 56 55 60/ 4/ 4 1014.4 3/ 6 3/ 6 DUCK 1700 58 66 60/ 7/ 8 1013.8 2 E DUCK 1611 58 N/A 3/ 6 OREGON INLET 1700 71 63 160/ 4/ 8 1013.3 13E OREGON INLT 1700 61 N/A 3/ 6 3/ 6 HATTERAS CG 1700 73 68 200/ 12/ 15 1013.6 DIAMOND BUOY 1650 73 72 220/ 16/ 17 1013.9 3/ 6 2/ 6 CAPE LOOKOUT 1700 74 210/ 10/ 13 1014.0 BEAUFORT LAB 1700 72 66 210/ 9/ 12 1013.2 30 SE NEW RVR IN 1625 67 N/A 4/ 6 27 SE WRIGHTSVLE 1708 71 69 230/ 10/ 14 1017.3 5 SE WRIGHTSVLE 1708 69 67 200/ 10/ 14 1014.6 225 S CAPE HAT 1650 71 72 190/ 6/ 8 1017.7 2/11 2/11 41 SE CHARLESTON 1650 72 72 220/ 8/ 10 1015.0 3/ 5 2/ 5 $$

USA.gov is the U.S. government's official web portal to all federal, state and local government web resources and services.